Location: Newark
(54.1978°N, 18.3264°E)
Time: 12:16:23
(UTC+00:00)

OTV 5 (USA 277) - Pass Details

Date: 01 September 2019
Orbit: 295 x 339 km, 54.5° (Epoch: 08 September)

Event Time Altitude Azimuth Distance (km) Brightness Sun altitude
Rises 18:17:43 0° 258° (WSW) 2,008 ? -6.2°
Reaches altitude 10° 18:19:40 10° 258° (WSW) 1,178 ? -6.5°
Maximum altitude 18:22:16 86° 174° (S) 306 ? -6.8°
Drops below altitude 10° 18:24:51 10° 81° (E) 1,168 ? -7.2°
Enters shadow 18:25:19 - 81° (E) 1,360 ? -7.2°
